| time (UTC) | temp F | wind direction | speed MPH | gust MPH | rain 1hr in | rain 24hr in | rain mn in | humidity % | barometer mb |
| 20260506185231 | 47 | 110 | 3.0 | 7.0 | 0.00 | 0.00 | 0.00 | 68 | 1010.6 |
| 20260506184729 | 47 | 196 | 3.0 | 8.0 | 0.00 | 0.00 | 0.00 | 67 | 1010.6 |
| 20260506184228 | 46 | 128 | 3.0 | 8.0 | 0.00 | 0.00 | 0.00 | 69 | 1010.6 |
| 20260506183732 | 46 | 92 | 3.0 | 6.0 | 0.00 | 0.00 | 0.00 | 70 | 1010.5 |
| 20260506183728 | 46 | 121 | 3.0 | 7.0 | 0.00 | 0.00 | 0.00 | 70 | 1010.5 |
| 20260506182727 | 46 | 106 | 3.0 | 7.0 | 0.00 | 0.00 | 0.00 | 70 | 1010.6 |
| 20260506182232 | 46 | 202 | 2.0 | 5.0 | 0.00 | 0.00 | 0.00 | 71 | 1010.5 |
| 20260506182228 | 46 | 159 | 3.0 | 7.0 | 0.00 | 0.00 | 0.00 | 70 | 1010.6 |
| 20260506181228 | 46 | 107 | 2.0 | 5.0 | 0.00 | 0.00 | 0.00 | 72 | 1010.4 |
| 20260506180728 | 45 | 198 | 2.0 | 5.0 | 0.00 | 0.00 | 0.00 | 73 | 1010.4 |
| 20260506180231 | 45 | 99 | 2.0 | 5.0 | 0.00 | 0.00 | 0.00 | 73 | 1010.4 |
| 20260506180227 | 45 | 145 | 2.0 | 5.0 | 0.00 | 0.00 | 0.00 | 73 | 1010.3 |
| 20260506175227 | 44 | 110 | 1.0 | 5.0 | 0.00 | 0.00 | 0.00 | 74 | 1010.4 |
| 20260506174725 | 44 | 179 | 1.0 | 3.0 | 0.00 | 0.00 | 0.00 | 76 | 1010.4 |
| 20260506174226 | 44 | 119 | 1.0 | 3.0 | 0.00 | 0.00 | 0.00 | 78 | 1010.4 |
| 20260506173725 | 44 | 101 | 1.0 | 3.0 | 0.00 | 0.00 | 0.00 | 78 | 1010.4 |
| 20260506173225 | 43 | 101 | 1.0 | 3.0 | 0.00 | 0.00 | 0.00 | 80 | 1010.4 |
| 20260506172723 | 43 | 101 | 1.0 | 3.0 | 0.00 | 0.00 | 0.00 | 81 | 1010.4 |
| 20260506172225 | 42 | 101 | 2.0 | 3.0 | 0.00 | 0.00 | 0.00 | 82 | 1010.4 |
| 20260506172221 | 43 | 101 | 1.0 | 3.0 | 0.00 | 0.00 | 0.00 | 82 | 1010.4 |
| 20260506171221 | 42 | 101 | 2.0 | 3.0 | 0.00 | 0.00 | 0.00 | 83 | 1010.4 |
| 20260506170722 | 42 | 328 | 1.0 | 3.0 | 0.00 | 0.00 | 0.00 | 84 | 1010.3 |
| 20260506170222 | 42 | 328 | 0.0 | 3.0 | 0.00 | 0.00 | 0.00 | 86 | 1010.3 |
| 20260506165718 | 41 | 328 | 0.0 | 2.0 | 0.00 | 0.00 | 0.00 | 88 | 1010.3 |
| 20260506165218 | 41 | 328 | 1.0 | 3.0 | 0.00 | 0.00 | 0.00 | 88 | 1010.2 |
| 20260506164717 | 41 | 328 | 0.0 | 3.0 | 0.00 | 0.00 | 0.00 | 89 | 1010.3 |
| 20260506164218 | 40 | 328 | 1.0 | 3.0 | 0.00 | 0.00 | 0.00 | 90 | 1010.2 |
| 20260506164214 | 40 | 328 | 0.0 | 2.0 | 0.00 | 0.00 | 0.00 | 90 | 1010.3 |
| 20260506163213 | 40 | 328 | 1.0 | 3.0 | 0.00 | 0.00 | 0.00 | 90 | 1010.2 |
| 20260506162711 | 40 | 328 | 0.0 | 3.0 | 0.00 | 0.00 | 0.00 | 91 | 1010.2 |
| 20260506162211 | 40 | 305 | 0.0 | 1.0 | 0.00 | 0.00 | 0.00 | 91 | 1010.2 |
| 20260506161705 | 39 | 306 | 0.0 | 1.0 | 0.00 | 0.00 | 0.00 | 91 | 1010.2 |
| 20260506161204 | 39 | 306 | 0.0 | 1.0 | 0.00 | 0.00 | 0.00 | 91 | 1010.3 |
| 20260506160704 | 39 | 306 | 0.0 | 2.0 | 0.00 | 0.00 | 0.00 | 92 | 1010.2 |
| 20260506160201 | 39 | 306 | 0.0 | 2.0 | 0.00 | 0.00 | 0.00 | 92 | 1010.2 |
| 20260506155702 | 38 | 306 | 0.0 | 3.0 | 0.00 | 0.00 | 0.00 | 92 | 1010.2 |
| 20260506155203 | 38 | 306 | 1.0 | 3.0 | 0.00 | 0.00 | 0.00 | 92 | 1010.1 |
| 20260506155158 | 38 | 306 | 0.0 | 2.0 | 0.00 | 0.00 | 0.00 | 93 | 1010.1 |
| 20260506154158 | 38 | 306 | 0.0 | 2.0 | 0.00 | 0.00 | 0.00 | 93 | 1010.1 |
| 20260506153655 | 38 | 306 | 0.0 | 2.0 | 0.00 | 0.00 | 0.00 | 93 | 1010.1 |
| 20260506153159 | 38 | 306 | 1.0 | 2.0 | 0.00 | 0.00 | 0.00 | 93 | 1010.1 |
| 20260506153155 | 38 | 306 | 1.0 | 2.0 | 0.00 | 0.00 | 0.00 | 93 | 1010.1 |
| 20260506152151 | 38 | 306 | 0.0 | 2.0 | 0.00 | 0.00 | 0.00 | 93 | 1010.1 |
| 20260506151651 | 38 | 306 | 0.0 | 2.0 | 0.00 | 0.00 | 0.00 | 93 | 1010.1 |
| 20260506151149 | 38 | 306 | 0.0 | 1.0 | 0.00 | 0.00 | 0.00 | 93 | 1010.1 |
| 20260506150649 | 37 | 306 | 0.0 | 1.0 | 0.00 | 0.00 | 0.00 | 93 | 1010.1 |
| 20260506150143 | 37 | 256 | 0.0 | 1.0 | 0.00 | 0.00 | 0.00 | 93 | 1010.0 |
| 20260506145641 | 37 | 256 | 0.0 | 1.0 | 0.00 | 0.00 | 0.00 | 93 | 1010.0 |
| 20260506145141 | 37 | 256 | 0.0 | 1.0 | 0.00 | 0.00 | 0.00 | 93 | 1010.0 |
| 20260506144639 | 37 | 256 | 0.0 | 0.0 | 0.00 | 0.00 | 0.00 | 93 | 1010.0 |
| 20260506144140 | 37 | 256 | 0.0 | 1.0 | 0.00 | 0.00 | 0.00 | 93 | 1010.1 |
| 20260506143635 | 37 | 256 | 0.0 | 1.0 | 0.00 | 0.00 | 0.00 | 93 | 1010.0 |
| 20260506143135 | 37 | 256 | 0.0 | 0.0 | 0.00 | 0.00 | 0.00 | 92 | 1010.0 |
| 20260506142635 | 37 | 256 | 0.0 | 0.0 | 0.00 | 0.00 | 0.00 | 92 | 1010.0 |
| 20260506142133 | 38 | 256 | 0.0 | 0.0 | 0.00 | 0.00 | 0.00 | 92 | 1010.0 |
| 20260506141632 | 38 | 256 | 0.0 | 0.0 | 0.00 | 0.00 | 0.00 | 92 | 1010.0 |
| 20260506141131 | 38 | 256 | 0.0 | 0.0 | 0.00 | 0.00 | 0.00 | 92 | 1010.0 |
| 20260506140629 | 38 | 256 | 0.0 | 0.0 | 0.00 | 0.00 | 0.00 | 91 | 1010.0 |
| 20260506140129 | 38 | 256 | 0.0 | 0.0 | 0.00 | 0.00 | 0.00 | 91 | 1010.0 |
| 20260506135623 | 38 | 256 | 0.0 | 0.0 | 0.00 | 0.00 | 0.00 | 91 | 1010.0 |
| 20260506135123 | 38 | 256 | 0.0 | 0.0 | 0.00 | 0.00 | 0.00 | 91 | 1010.0 |
| 20260506134617 | 38 | 256 | 0.0 | 0.0 | 0.00 | 0.00 | 0.00 | 90 | 1010.1 |
| 20260506134115 | 38 | 256 | 0.0 | 0.0 | 0.00 | 0.00 | 0.00 | 90 | 1010.0 |
| 20260506133615 | 38 | 256 | 0.0 | 0.0 | 0.00 | 0.00 | 0.00 | 90 | 1010.0 |
| 20260506133113 | 38 | 256 | 0.0 | 1.0 | 0.00 | 0.00 | 0.00 | 89 | 1010.0 |
| 20260506132611 | 39 | 256 | 0.0 | 1.0 | 0.00 | 0.00 | 0.00 | 88 | 1009.9 |
| 20260506132114 | 39 | 256 | 0.0 | 0.0 | 0.00 | 0.00 | 0.00 | 88 | 1009.9 |
| 20260506132110 | 39 | 256 | 0.0 | 0.0 | 0.00 | 0.00 | 0.00 | 87 | 1009.9 |
| 20260506131109 | 40 | 256 | 0.0 | 0.0 | 0.00 | 0.00 | 0.00 | 86 | 1009.9 |
| 20260506130603 | 40 | 256 | 0.0 | 0.0 | 0.00 | 0.00 | 0.00 | 85 | 1009.9 |
| 20260506130100 | 40 | 256 | 0.0 | 0.0 | 0.00 | 0.00 | 0.00 | 84 | 1009.9 |
| 20260506125600 | 40 | 256 | 0.0 | 0.0 | 0.00 | 0.00 | 0.00 | 84 | 1009.9 |
| 20260506125059 | 40 | 256 | 0.0 | 0.0 | 0.00 | 0.00 | 0.00 | 83 | 1009.9 |
| 20260506124601 | 41 | 256 | 0.0 | 0.0 | 0.00 | 0.00 | 0.00 | 82 | 1009.8 |
| 20260506124557 | 40 | 256 | 0.0 | 0.0 | 0.00 | 0.00 | 0.00 | 82 | 1009.9 |
| 20260506123555 | 41 | 256 | 0.0 | 2.0 | 0.00 | 0.00 | 0.00 | 81 | 1009.8 |
| 20260506123056 | 41 | 256 | 0.0 | 4.0 | 0.00 | 0.00 | 0.00 | 80 | 1009.8 |
| 20260506122553 | 41 | 256 | 1.0 | 4.0 | 0.00 | 0.00 | 0.00 | 79 | 1009.8 |
| 20260506122051 | 41 | 258 | 1.0 | 4.0 | 0.00 | 0.00 | 0.00 | 78 | 1009.8 |
| 20260506121551 | 42 | 261 | 2.0 | 4.0 | 0.00 | 0.00 | 0.00 | 77 | 1009.7 |
| 20260506121050 | 42 | 261 | 2.0 | 4.0 | 0.00 | 0.00 | 0.00 | 76 | 1009.7 |
| 20260506120551 | 42 | 286 | 2.0 | 4.0 | 0.00 | 0.00 | 0.00 | 74 | 1009.6 |
| 20260506120052 | 42 | 287 | 1.0 | 4.0 | 0.00 | 0.00 | 0.00 | 73 | 1009.6 |
| 20260506120048 | 42 | 282 | 1.0 | 3.0 | 0.00 | 0.00 | 0.00 | 72 | 1009.6 |
| 20260506115047 | 42 | 291 | 0.0 | 2.0 | 0.00 | 0.00 | 0.00 | 72 | 1009.6 |
| 20260506114545 | 42 | 291 | 1.0 | 3.0 | 0.00 | 0.00 | 0.00 | 71 | 1009.5 |
| 20260506114043 | 42 | 291 | 1.0 | 4.0 | 0.00 | 0.00 | 0.00 | 70 | 1009.5 |
| 20260506113542 | 42 | 291 | 2.0 | 4.0 | 0.00 | 0.00 | 0.00 | 70 | 1009.4 |
| 20260506113041 | 42 | 291 | 2.0 | 4.0 | 0.00 | 0.00 | 0.00 | 70 | 1009.4 |
| 20260506112546 | 42 | 30 | 0.0 | 3.0 | 0.00 | 0.00 | 0.00 | 70 | 1009.4 |
| 20260506112542 | 41 | 290 | 1.0 | 3.0 | 0.00 | 0.00 | 0.00 | 70 | 1009.4 |
| 20260506111540 | 42 | 30 | 0.0 | 2.0 | 0.00 | 0.00 | 0.00 | 70 | 1009.2 |
| 20260506111041 | 42 | 30 | 0.0 | 1.0 | 0.00 | 0.00 | 0.00 | 68 | 1009.1 |
| 20260506110538 | 42 | 30 | 1.0 | 3.0 | 0.00 | 0.00 | 0.00 | 68 | 1009.1 |
| 20260506110039 | 42 | 31 | 1.0 | 3.0 | 0.00 | 0.00 | 0.00 | 68 | 1009.0 |
| 20260506105539 | 42 | 129 | 0.0 | 2.0 | 0.00 | 0.00 | 0.00 | 68 | 1009.0 |
| 20260506105039 | 42 | 129 | 0.0 | 0.0 | 0.00 | 0.00 | 0.00 | 67 | 1008.9 |
| 20260506104543 | 42 | 129 | 1.0 | 4.0 | 0.00 | 0.00 | 0.00 | 66 | 1008.7 |
| 20260506104539 | 42 | 129 | 0.0 | 2.0 | 0.00 | 0.00 | 0.00 | 67 | 1008.8 |
| 20260506103535 | 42 | 129 | 2.0 | 4.0 | 0.00 | 0.00 | 0.00 | 66 | 1008.7 |
| 20260506103039 | 42 | 128 | 3.0 | 5.0 | 0.00 | 0.00 | 0.00 | 66 | 1008.5 |
| 20260506103035 | 42 | 137 | 2.0 | 5.0 | 0.00 | 0.00 | 0.00 | 67 | 1008.5 |
| 20260506102039 | 43 | 120 | 2.0 | 5.0 | 0.00 | 0.00 | 0.00 | 66 | 1008.4 |
| 20260506102035 | 43 | 116 | 2.0 | 5.0 | 0.00 | 0.00 | 0.00 | 66 | 1008.4 |
| 20260506101039 | 43 | 76 | 2.0 | 6.0 | 0.00 | 0.00 | 0.00 | 65 | 1008.4 |
| 20260506101035 | 43 | 102 | 2.0 | 6.0 | 0.00 | 0.00 | 0.00 | 65 | 1008.4 |
| 20260506100034 | 43 | 111 | 2.0 | 5.0 | 0.00 | 0.00 | 0.00 | 65 | 1008.3 |
| 20260506095535 | 43 | 72 | 1.0 | 5.0 | 0.00 | 0.00 | 0.00 | 65 | 1008.3 |
| 20260506095141 | 43 | 145 | 2.0 | 5.0 | 0.00 | 0.00 | 0.00 | 64 | 1008.2 |
| 20260506095039 | 43 | 139 | 2.0 | 5.0 | 0.00 | 0.00 | 0.00 | 64 | 1008.3 |
| 20260506095034 | 43 | 139 | 1.0 | 3.0 | 0.00 | 0.00 | 0.00 | 64 | 1008.3 |
| 20260506093534 | 43 | 127 | 2.0 | 5.0 | 0.00 | 0.00 | 0.00 | 63 | 1008.2 |
| 20260506093034 | 44 | 131 | 2.0 | 5.0 | 0.00 | 0.00 | 0.00 | 63 | 1008.2 |
| 20260506092534 | 44 | 131 | 3.0 | 10.0 | 0.00 | 0.00 | 0.00 | 63 | 1008.1 |
| 20260506092038 | 44 | 170 | 3.0 | 9.0 | 0.00 | 0.00 | 0.00 | 63 | 1008.0 |
| 20260506092034 | 44 | 112 | 3.0 | 10.0 | 0.00 | 0.00 | 0.00 | 63 | 1008.1 |
| 20260506091639 | 44 | 105 | 3.0 | 9.0 | 0.00 | 0.00 | 0.00 | 63 | 1007.9 |
| 20260506090538 | 44 | 163 | 4.0 | 8.0 | 0.00 | 0.00 | 0.00 | 63 | 1008.0 |
| 20260506090534 | 44 | 180 | 3.0 | 8.0 | 0.00 | 0.00 | 0.00 | 63 | 1008.0 |
| 20260506085534 | 44 | 132 | 3.0 | 8.0 | 0.00 | 0.00 | 0.00 | 63 | 1007.9 |
| 20260506085035 | 44 | 143 | 4.0 | 9.0 | 0.00 | 0.00 | 0.00 | 63 | 1007.8 |
| 20260506084533 | 44 | 201 | 4.0 | 9.0 | 0.00 | 0.00 | 0.00 | 62 | 1007.8 |
| 20260506084033 | 44 | 145 | 5.0 | 11.0 | 0.00 | 0.00 | 0.00 | 63 | 1007.7 |
| 20260506083533 | 44 | 199 | 5.0 | 12.0 | 0.00 | 0.00 | 0.00 | 62 | 1007.7 |
| 20260506083037 | 44 | 206 | 5.0 | 11.0 | 0.00 | 0.00 | 0.00 | 63 | 1007.6 |
| 20260506083033 | 44 | 153 | 5.0 | 12.0 | 0.00 | 0.00 | 0.00 | 63 | 1007.7 |
| 20260506082033 | 44 | 137 | 5.0 | 13.0 | 0.00 | 0.00 | 0.00 | 63 | 1007.6 |
| 20260506081532 | 44 | 110 | 5.0 | 13.0 | 0.00 | 0.00 | 0.00 | 63 | 1007.6 |
| 20260506081036 | 44 | 169 | 6.0 | 14.0 | 0.00 | 0.00 | 0.00 | 63 | 1007.6 |
| 20260506081032 | 44 | 154 | 5.0 | 11.0 | 0.00 | 0.00 | 0.00 | 63 | 1007.5 |
| 20260506073527 | 44 | 147 | 5.0 | 11.0 | 0.00 | 0.00 | 0.00 | 63 | 1007.3 |
| 20260506073026 | 44 | 172 | 4.0 | 11.0 | 0.00 | 0.00 | 0.00 | 63 | 1007.3 |
| 20260506072531 | 44 | 141 | 4.0 | 12.0 | 0.00 | 0.00 | 0.00 | 63 | 1007.1 |
| 20260506072527 | 44 | 222 | 4.0 | 11.0 | 0.00 | 0.00 | 0.00 | 63 | 1007.2 |
| 20260506071527 | 44 | 151 | 5.0 | 12.0 | 0.00 | 0.00 | 0.00 | 63 | 1007.1 |
| 20260506071027 | 44 | 174 | 6.0 | 15.0 | 0.00 | 0.00 | 0.00 | 63 | 1007.0 |
| 20260506070528 | 44 | 145 | 6.0 | 15.0 | 0.00 | 0.00 | 0.00 | 63 | 1006.9 |
| 20260506061527 | 46 | 153 | 7.0 | 18.0 | 0.00 | 0.00 | 0.00 | 61 | 1006.5 |
| 20260506061027 | 46 | 162 | 8.0 | 16.0 | 0.00 | 0.00 | 0.00 | 61 | 1006.5 |
| 20260506060527 | 46 | 118 | 7.0 | 17.0 | 0.00 | 0.00 | 0.00 | 61 | 1006.4 |
| 20260506051018 | 47 | 188 | 7.0 | 16.0 | 0.00 | 0.00 | 0.00 | 60 | 1005.9 |
| 20260506050518 | 47 | 148 | 7.0 | 16.0 | 0.00 | 0.00 | 0.00 | 60 | 1005.9 |
| 20260506045018 | 47 | 139 | 7.0 | 22.0 | 0.00 | 0.00 | 0.00 | 59 | 1005.7 |
| 20260506044523 | 47 | 143 | 8.0 | 16.0 | 0.00 | 0.00 | 0.00 | 59 | 1005.7 |
| 20260506044519 | 47 | 174 | 7.0 | 15.0 | 0.00 | 0.00 | 0.00 | 60 | 1005.7 |
| 20260506043519 | 48 | 147 | 8.0 | 16.0 | 0.00 | 0.00 | 0.00 | 59 | 1005.6 |
| 20260506043019 | 48 | 133 | 7.0 | 15.0 | 0.00 | 0.00 | 0.00 | 59 | 1005.6 |
| 20260506042520 | 48 | 124 | 6.0 | 15.0 | 0.00 | 0.00 | 0.00 | 59 | 1005.5 |
| 20260506042020 | 48 | 145 | 7.0 | 15.0 | 0.00 | 0.00 | 0.00 | 59 | 1005.5 |
| 20260506041520 | 48 | 181 | 8.0 | 18.0 | 0.00 | 0.00 | 0.00 | 58 | 1005.6 |
| 20260506041020 | 48 | 189 | 8.0 | 21.0 | 0.00 | 0.00 | 0.00 | 57 | 1005.5 |
| 20260506040524 | 49 | 175 | 7.0 | 15.0 | 0.00 | 0.00 | 0.00 | 57 | 1005.5 |
| 20260506040520 | 49 | 226 | 8.0 | 21.0 | 0.00 | 0.00 | 0.00 | 58 | 1005.6 |
| 20260506035520 | 49 | 184 | 6.0 | 13.0 | 0.00 | 0.00 | 0.00 | 56 | 1005.4 |
| 20260506035023 | 49 | 164 | 6.0 | 16.0 | 0.00 | 0.00 | 0.00 | 56 | 1005.3 |
| 20260506035017 | 49 | 165 | 6.0 | 16.0 | 0.00 | 0.00 | 0.00 | 55 | 1005.3 |
| 20260506034016 | 49 | 170 | 6.0 | 12.0 | 0.00 | 0.00 | 0.00 | 56 | 1005.3 |
| 20260506033516 | 49 | 135 | 7.0 | 16.0 | 0.00 | 0.00 | 0.00 | 56 | 1005.2 |
| 20260506033015 | 49 | 184 | 5.0 | 16.0 | 0.00 | 0.00 | 0.00 | 55 | 1005.2 |
| 20260506032517 | 49 | 175 | 5.0 | 12.0 | 0.00 | 0.00 | 0.00 | 56 | 1005.2 |
| 20260506032019 | 50 | 114 | 3.0 | 11.0 | 0.00 | 0.00 | 0.00 | 55 | 1005.2 |
| 20260506032015 | 49 | 146 | 5.0 | 12.0 | 0.00 | 0.00 | 0.00 | 56 | 1005.2 |
| 20260506031622 | 50 | 108 | 2.0 | 7.0 | 0.00 | 0.00 | 0.00 | 55 | 1005.2 |
| 20260506030516 | 50 | 124 | 3.0 | 6.0 | 0.00 | 0.00 | 0.00 | 54 | 1005.1 |
| 20260506030014 | 50 | 224 | 3.0 | 6.0 | 0.00 | 0.00 | 0.00 | 54 | 1005.1 |
| 20260506025514 | 50 | 147 | 5.0 | 12.0 | 0.00 | 0.00 | 0.00 | 54 | 1005.1 |
| 20260506025014 | 50 | 177 | 5.0 | 12.0 | 0.00 | 0.00 | 0.00 | 54 | 1005.0 |
| 20260506024515 | 50 | 161 | 4.0 | 11.0 | 0.00 | 0.00 | 0.00 | 53 | 1005.0 |
| 20260506024511 | 51 | 106 | 4.0 | 11.0 | 0.00 | 0.00 | 0.00 | 53 | 1004.9 |
| 20260506023510 | 51 | 168 | 4.0 | 13.0 | 0.00 | 0.00 | 0.00 | 53 | 1004.9 |
| 20260506023117 | 51 | 151 | 7.0 | 13.0 | 0.00 | 0.00 | 0.00 | 53 | 1004.8 |
| 20260506023014 | 51 | 121 | 6.0 | 13.0 | 0.00 | 0.00 | 0.00 | 53 | 1004.8 |
| 20260506023010 | 51 | 177 | 5.0 | 13.0 | 0.00 | 0.00 | 0.00 | 54 | 1004.8 |
| 20260506021508 | 51 | 193 | 6.0 | 15.0 | 0.00 | 0.00 | 0.00 | 53 | 1004.9 |
| 20260506021006 | 51 | 179 | 6.0 | 13.0 | 0.00 | 0.00 | 0.00 | 52 | 1004.8 |
| 20260506020508 | 51 | 133 | 7.0 | 13.0 | 0.00 | 0.00 | 0.00 | 52 | 1004.9 |
| 20260506020007 | 51 | 183 | 6.0 | 13.0 | 0.00 | 0.00 | 0.00 | 53 | 1004.9 |
| 20260506015506 | 51 | 160 | 6.0 | 13.0 | 0.00 | 0.00 | 0.00 | 53 | 1004.8 |
| 20260506015006 | 51 | 176 | 7.0 | 14.0 | 0.00 | 0.00 | 0.00 | 53 | 1004.9 |
| 20260506014505 | 50 | 167 | 6.0 | 14.0 | 0.00 | 0.00 | 0.00 | 54 | 1004.8 |
| 20260506014006 | 50 | 147 | 5.0 | 11.0 | 0.00 | 0.00 | 0.00 | 55 | 1004.9 |
| 20260506013507 | 50 | 197 | 5.0 | 10.0 | 0.00 | 0.00 | 0.00 | 55 | 1004.8 |
| 20260506013006 | 50 | 159 | 6.0 | 12.0 | 0.00 | 0.00 | 0.00 | 55 | 1004.9 |
| 20260506012506 | 50 | 166 | 6.0 | 13.0 | 0.00 | 0.00 | 0.00 | 54 | 1004.8 |
| 20260506012006 | 50 | 186 | 7.0 | 15.0 | 0.00 | 0.00 | 0.00 | 54 | 1004.9 |
| 20260506011507 | 50 | 187 | 7.0 | 15.0 | 0.00 | 0.00 | 0.00 | 54 | 1004.9 |
| 20260506011010 | 50 | 167 | 6.0 | 14.0 | 0.00 | 0.00 | 0.00 | 55 | 1004.8 |
| 20260506011006 | 50 | 163 | 7.0 | 14.0 | 0.00 | 0.00 | 0.00 | 55 | 1004.9 |
| 20260506010007 | 50 | 162 | 6.0 | 14.0 | 0.00 | 0.00 | 0.00 | 55 | 1004.8 |
| 20260506005502 | 50 | 147 | 6.0 | 13.0 | 0.00 | 0.00 | 0.00 | 55 | 1004.8 |
| 20260506005002 | 51 | 134 | 6.0 | 16.0 | 0.00 | 0.00 | 0.00 | 55 | 1004.7 |
| 20260506004503 | 50 | 139 | 7.0 | 18.0 | 0.00 | 0.00 | 0.00 | 55 | 1004.7 |
| 20260506004001 | 51 | 164 | 7.0 | 18.0 | 0.00 | 0.00 | 0.00 | 55 | 1004.6 |
| 20260506003501 | 51 | 137 | 7.0 | 15.0 | 0.00 | 0.00 | 0.00 | 55 | 1004.7 |
| 20260506003457 | 51 | 159 | 8.0 | 17.0 | 0.00 | 0.00 | 0.00 | 55 | 1004.7 |
| 20260506003102 | 51 | 155 | 8.0 | 17.0 | 0.00 | 0.00 | 0.00 | 55 | 1004.7 |
| 20260506002000 | 51 | 167 | 7.0 | 16.0 | 0.00 | 0.00 | 0.00 | 55 | 1004.6 |
| 20260506001956 | 51 | 208 | 8.0 | 17.0 | 0.00 | 0.00 | 0.00 | 56 | 1004.7 |
| 20260506000957 | 51 | 183 | 8.0 | 17.0 | 0.00 | 0.00 | 0.00 | 55 | 1004.6 |
| 20260506000455 | 51 | 194 | 10.0 | 17.0 | 0.00 | 0.00 | 0.00 | 54 | 1004.6 |
| 20260505235953 | 51 | 154 | 9.0 | 17.0 | 0.00 | 0.00 | 0.00 | 54 | 1004.6 |
| 20260505235452 | 51 | 164 | 8.0 | 17.0 | 0.00 | 0.00 | 0.00 | 54 | 1004.5 |
| 20260505234952 | 50 | 167 | 9.0 | 18.0 | 0.00 | 0.00 | 0.00 | 55 | 1004.5 |
| 20260505234450 | 50 | 139 | 9.0 | 21.0 | 0.00 | 0.00 | 0.00 | 54 | 1004.5 |
| 20260505233949 | 50 | 179 | 10.0 | 21.0 | 0.00 | 0.00 | 0.00 | 54 | 1004.6 |
| 20260505233444 | 50 | 155 | 9.0 | 19.0 | 0.00 | 0.00 | 0.00 | 54 | 1004.5 |
| 20260505232944 | 50 | 168 | 10.0 | 22.0 | 0.00 | 0.00 | 0.00 | 54 | 1004.5 |
| 20260505232444 | 50 | 161 | 9.0 | 22.0 | 0.00 | 0.00 | 0.00 | 53 | 1004.6 |
| 20260505231945 | 51 | 163 | 7.0 | 19.0 | 0.00 | 0.00 | 0.00 | 54 | 1004.5 |
| 20260505231444 | 51 | 162 | 6.0 | 14.0 | 0.00 | 0.00 | 0.00 | 53 | 1004.5 |
| 20260505230948 | 50 | 163 | 9.0 | 17.0 | 0.00 | 0.00 | 0.00 | 52 | 1004.3 |
| 20260505230944 | 50 | 102 | 7.0 | 17.0 | 0.00 | 0.00 | 0.00 | 54 | 1004.4 |
| 20260505225944 | 50 | 196 | 9.0 | 17.0 | 0.00 | 0.00 | 0.00 | 53 | 1004.4 |
| 20260505225444 | 50 | 193 | 9.0 | 17.0 | 0.00 | 0.00 | 0.00 | 53 | 1004.4 |
| 20260505224943 | 50 | 179 | 7.0 | 17.0 | 0.00 | 0.00 | 0.00 | 54 | 1004.3 |
| 20260505224447 | 51 | 204 | 7.0 | 15.0 | 0.00 | 0.00 | 0.00 | 54 | 1004.3 |
| 20260505224442 | 50 | 168 | 7.0 | 15.0 | 0.00 | 0.00 | 0.00 | 53 | 1004.3 |
| 20260505223442 | 50 | 115 | 7.0 | 14.0 | 0.00 | 0.00 | 0.00 | 53 | 1004.2 |
| 20260505222946 | 50 | 127 | 9.0 | 18.0 | 0.00 | 0.00 | 0.00 | 52 | 1004.2 |
| 20260505222942 | 50 | 179 | 8.0 | 18.0 | 0.00 | 0.00 | 0.00 | 53 | 1004.2 |
| 20260505222549 | 50 | 166 | 8.0 | 18.0 | 0.00 | 0.00 | 0.00 | 52 | 1004.2 |
| 20260505221442 | 50 | 102 | 8.0 | 18.0 | 0.00 | 0.00 | 0.00 | 52 | 1004.1 |
| 20260505220941 | 50 | 172 | 8.0 | 17.0 | 0.00 | 0.00 | 0.00 | 52 | 1004.2 |
| 20260505220442 | 50 | 186 | 7.0 | 17.0 | 0.00 | 0.00 | 0.00 | 51 | 1004.1 |
| 20260505215942 | 50 | 199 | 7.0 | 14.0 | 0.00 | 0.00 | 0.00 | 53 | 1004.1 |
| 20260505215446 | 49 | 127 | 8.0 | 17.0 | 0.00 | 0.00 | 0.00 | 54 | 1004.0 |
| 20260505215442 | 49 | 164 | 8.0 | 17.0 | 0.00 | 0.00 | 0.00 | 54 | 1004.1 |
| 20260505214442 | 49 | 195 | 8.0 | 16.0 | 0.00 | 0.00 | 0.00 | 54 | 1004.0 |
| 20260505213941 | 49 | 197 | 9.0 | 19.0 | 0.00 | 0.00 | 0.00 | 55 | 1003.9 |
| 20260505213443 | 49 | 144 | 8.0 | 19.0 | 0.00 | 0.00 | 0.00 | 54 | 1004.0 |
| 20260505212938 | 49 | 151 | 7.0 | 16.0 | 0.00 | 0.00 | 0.00 | 55 | 1004.0 |
| 20260505212442 | 49 | 189 | 7.0 | 16.0 | 0.00 | 0.00 | 0.00 | 56 | 1003.9 |
| 20260505212438 | 49 | 175 | 8.0 | 16.0 | 0.00 | 0.00 | 0.00 | 56 | 1004.0 |
| 20260505211439 | 48 | 144 | 8.0 | 19.0 | 0.00 | 0.00 | 0.00 | 56 | 1003.9 |
| 20260505210937 | 48 | 176 | 8.0 | 19.0 | 0.00 | 0.00 | 0.00 | 56 | 1003.9 |
| 20260505210433 | 49 | 142 | 8.0 | 17.0 | 0.00 | 0.00 | 0.00 | 55 | 1003.9 |
| 20260505205934 | 49 | 172 | 9.0 | 17.0 | 0.00 | 0.00 | 0.00 | 54 | 1004.0 |
| 20260505205434 | 49 | 174 | 9.0 | 17.0 | 0.00 | 0.00 | 0.00 | 54 | 1003.9 |
| 20260505204930 | 49 | 136 | 7.0 | 15.0 | 0.00 | 0.00 | 0.00 | 54 | 1003.9 |
| 20260505204429 | 49 | 112 | 6.0 | 15.0 | 0.00 | 0.00 | 0.00 | 52 | 1004.0 |
| 20260505203929 | 49 | 190 | 6.0 | 14.0 | 0.00 | 0.00 | 0.00 | 53 | 1003.9 |
| 20260505203429 | 49 | 154 | 7.0 | 16.0 | 0.00 | 0.00 | 0.00 | 53 | 1003.9 |
| 20260505202929 | 49 | 147 | 8.0 | 19.0 | 0.00 | 0.00 | 0.00 | 52 | 1003.9 |
| 20260505202423 | 49 | 163 | 6.0 | 19.0 | 0.00 | 0.00 | 0.00 | 51 | 1003.9 |
| 20260505201928 | 49 | 218 | 8.0 | 16.0 | 0.00 | 0.00 | 0.00 | 52 | 1003.9 |
| 20260505201923 | 49 | 192 | 6.0 | 16.0 | 0.00 | 0.00 | 0.00 | 52 | 1003.8 |
| 20260505200923 | 49 | 135 | 8.0 | 15.0 | 0.00 | 0.00 | 0.00 | 51 | 1003.9 |
| 20260505200424 | 49 | 174 | 7.0 | 16.0 | 0.00 | 0.00 | 0.00 | 51 | 1003.8 |
| 20260505195924 | 49 | 184 | 6.0 | 16.0 | 0.00 | 0.00 | 0.00 | 51 | 1003.8 |
| 20260505195427 | 49 | 137 | 6.0 | 15.0 | 0.00 | 0.00 | 0.00 | 52 | 1003.8 |
| 20260505195423 | 49 | 202 | 6.0 | 12.0 | 0.00 | 0.01 | 0.00 | 52 | 1003.7 |
| 20260505194422 | 49 | 145 | 6.0 | 14.0 | 0.00 | 0.01 | 0.00 | 52 | 1003.7 |
| 20260505193922 | 48 | 137 | 6.0 | 14.0 | 0.00 | 0.01 | 0.00 | 52 | 1003.6 |
| 20260505193421 | 48 | 169 | 6.0 | 13.0 | 0.00 | 0.01 | 0.00 | 51 | 1003.7 |
| 20260505192921 | 48 | 189 | 6.0 | 12.0 | 0.00 | 0.01 | 0.00 | 53 | 1003.7 |
| 20260505192422 | 48 | 163 | 5.0 | 12.0 | 0.00 | 0.01 | 0.00 | 53 | 1003.7 |
| 20260505191921 | 48 | 90 | 5.0 | 11.0 | 0.00 | 0.01 | 0.00 | 53 | 1003.7 |
| 20260505191421 | 48 | 185 | 6.0 | 13.0 | 0.00 | 0.01 | 0.00 | 53 | 1003.6 |
| 20260505190922 | 48 | 201 | 7.0 | 14.0 | 0.00 | 0.01 | 0.00 | 54 | 1003.6 |
| 20260505190422 | 48 | 181 | 7.0 | 14.0 | 0.00 | 0.01 | 0.00 | 54 | 1003.6 |
| 20260505185921 | 48 | 170 | 6.0 | 13.0 | 0.00 | 0.01 | 0.00 | 54 | 1003.5 |